EXPRESS AMU-3

Last updated on Thu Oct 30 2025 00:02:52 GMT+0000 (Coordinated Universal Time)

1 50002U 21123B 25301.61061476 -.00000311 00000+0 00000+0 0 9992 2 50002 0.0190 263.2875 0000342 227.1006 229.6503 1.00270305 4705
UTC large
Height (km)
Speed (km/s)
/
Latitude / Longitude
Inclination (degrees)
Orbital Period (minutes)
Azimuth
Elevation
Range (km)
Doppler Factor

Next 0 passes for location: London (51.5072 / 0.1276)

Sorry there are no passes over London.